| time (UTC) | temp C | wind direction | speed KPH | gust KPH | rain 1hr cm | rain 24hr cm | rain mn cm | humidity % | barometer mb |
| 20260507182115 | 11 | 14 | 0.0 | 0.0 | 0.00 | 0.08 | 0.00 | 54 | 53.7 |
| 20260507181111 | 11 | 80 | 0.0 | 0.0 | 0.00 | 0.08 | 0.00 | 12 | 8.1 |
| 20260507180106 | 12 | 250 | 0.0 | 0.0 | 0.00 | 0.03 | 0.00 | 1 | 8.1 |
| 20260507174059 | 12 | 295 | 4.8 | 0.0 | 0.00 | 0.00 | 0.00 | 3 | 8.1 |
| 20260507173056 | 12 | 286 | 4.8 | 0.0 | 0.00 | 0.00 | 0.00 | 5 | 2585.6 |
| 20260507172047 | 13 | 341 | 8.0 | 0.0 | 0.00 | 0.00 | 0.00 | 1 | 2585.6 |
| 20260507171042 | 13 | 333 | 6.4 | 0.0 | 0.00 | 0.00 | 0.00 | 12 | 4352.0 |
| 20260507170040 | 14 | 288 | 4.8 | 0.0 | 0.00 | 0.00 | 0.00 | 1 | 4352.0 |
| 20260507165035 | 15 | 329 | 1.6 | 0.0 | 0.00 | 0.00 | 0.00 | 12 | 979.2 |
| 20260507164027 | 15 | 11 | 0.0 | 0.0 | 0.00 | 0.00 | 0.00 | 12 | |
| 20260507163025 | 16 | 85 | 0.0 | 0.0 | 0.00 | 0.00 | 0.00 | 12 | 11.5 |
| 20260507162019 | 17 | 161 | 0.0 | 0.0 | 0.00 | 0.00 | 0.00 | 54 | 1019.2 |
| 20260507161013 | 17 | 130 | 0.0 | 0.0 | 0.00 | 0.00 | 0.00 | 3 | 5738.5 |
| 20260507160009 | 18 | 163 | 0.0 | 0.0 | 0.00 | 0.00 | 0.00 | 88 | 5738.5 |
| 20260507155003 | 18 | 226 | 0.0 | 0.0 | 0.00 | 0.00 | 0.00 | 2 | 5738.5 |
| 20260507153959 | 18 | 126 | 3.2 | 0.0 | 0.00 | 0.00 | 0.00 | 4 | 5738.5 |
| 20260507152956 | 18 | 188 | 4.8 | 0.0 | 0.00 | 0.00 | 0.00 | 1 | 5738.5 |
| 20260507151947 | 18 | 12 | 1.6 | 0.0 | 0.00 | 0.00 | 0.00 | 2 | 5738.5 |
| 20260507151351 | 18 | 57 | 0.0 | 0.0 | 0.00 | 0.00 | 0.00 | 12 | 5738.5 |
| 20260507150943 | 18 | 57 | 0.0 | 0.0 | 0.00 | 0.00 | 0.00 | 12 | 5738.5 |
| 20260507145937 | 18 | 161 | 3.2 | 0.0 | 0.00 | 0.00 | 0.00 | 100 | 4352.0 |
| 20260507144931 | 18 | 320 | 0.0 | 0.0 | 0.00 | 0.00 | 0.00 | 3 | 4352.0 |
| 20260507143926 | 18 | 85 | 3.2 | 0.0 | 0.00 | 0.00 | 0.00 | 62 | 4352.0 |
| 20260507142922 | 17 | 171 | 0.0 | 0.0 | 0.00 | 0.00 | 0.00 | 1 | 4352.0 |
| 20260507141915 | 18 | 205 | 3.2 | 0.0 | 0.00 | 0.00 | 0.00 | 53 | 4352.0 |
| 20260507135902 | 19 | 187 | 0.0 | 0.0 | 0.00 | 0.00 | 0.00 | 11 | 8.1 |
| 20260507134853 | 18 | 156 | 1.6 | 0.0 | 0.00 | 0.00 | 0.00 | 53 | 8.1 |
| 20260507133848 | 18 | 167 | 1.6 | 0.0 | 0.00 | 0.00 | 0.00 | 1 | 8.1 |
| 20260507132839 | 19 | 174 | 1.6 | 0.0 | 0.00 | 0.00 | 0.00 | 1 | 3840.0 |
| 20260507131833 | 20 | 11 | 0.0 | 0.0 | 0.00 | 0.00 | 0.00 | 1 | 3840.0 |
| 20260507130826 | 18 | 175 | 1.6 | 0.0 | 0.00 | 0.00 | 0.00 | 11 | 3840.0 |
| 20260507125821 | 18 | 208 | 4.8 | 0.0 | 0.00 | 0.00 | 0.00 | 55 | 361.6 |
| 20260507124816 | 18 | 168 | 0.0 | 0.0 | 0.00 | 0.00 | 0.00 | 1 | 361.6 |
| 20260507123813 | 18 | 317 | 0.0 | 0.0 | 0.00 | 0.00 | 0.00 | 3 | 3277.3 |
| 20260507122808 | 20 | 146 | 0.0 | 0.0 | 0.00 | 0.00 | 0.00 | 1 | 3690.6 |
| 20260507121804 | 19 | 108 | 0.0 | 0.0 | 0.00 | 0.00 | 0.00 | 85 | 3690.6 |
| 20260507120759 | 19 | 170 | 0.0 | 0.0 | 0.00 | 0.00 | 0.00 | 5 | 4.3 |
| 20260507115753 | 20 | 90 | 1.6 | 0.0 | 0.00 | 0.00 | 0.00 | 100 | 3609.8 |
| 20260507114745 | 20 | 106 | 1.6 | 0.0 | 0.00 | 0.00 | 0.00 | 3 | 3609.8 |
| 20260507113740 | 20 | 80 | 0.0 | 0.0 | 0.00 | 0.00 | 0.00 | 10 | 870.4 |
| 20260507112734 | 20 | 133 | 3.2 | 0.0 | 0.00 | 0.00 | 0.00 | 53 | 204.8 |
| 20260507111731 | 20 | 180 | 0.0 | 0.0 | 0.00 | 0.00 | 0.00 | 53 | 8.1 |
| 20260507110726 | 20 | 184 | 0.0 | 0.0 | 0.00 | 0.00 | 0.00 | 100 | 2048.5 |
| 20260507105719 | 19 | 102 | 0.0 | 0.0 | 0.00 | 0.00 | 0.00 | 12 | 2052.2 |
| 20260507104715 | 18 | 244 | 0.0 | 0.0 | 0.00 | 0.00 | 0.00 | 53 | 1096.0 |
| 20260507103710 | 20 | 226 | 0.0 | 0.0 | 0.00 | 0.00 | 0.00 | 79 | 1096.0 |
| 20260507102704 | 20 | 254 | 1.6 | 0.0 | 0.00 | 0.00 | 0.00 | 12 | 1096.0 |
| 20260507101700 | 19 | 74 | 0.0 | 0.0 | 0.00 | 0.00 | 0.00 | 5 | |
| 20260507100655 | 19 | 149 | 0.0 | 0.0 | 0.00 | 0.00 | 0.00 | 53 | |
| 20260507095648 | 20 | 172 | 3.2 | 0.0 | 0.00 | 0.00 | 0.00 | 71 | |
| 20260507094641 | 19 | 258 | 0.0 | 0.0 | 0.00 | 0.00 | 0.00 | 1 | 460.8 |
| 20260507093637 | 20 | 178 | 1.6 | 0.0 | 0.00 | 0.00 | 0.00 | 51 | 460.8 |
| 20260507092631 | 20 | 226 | 1.6 | 0.0 | 0.00 | 0.00 | 0.00 | 3 | 4509.9 |
| 20260507091622 | 21 | 150 | 0.0 | 0.0 | 0.00 | 0.00 | 0.00 | 12 | |
| 20260507090616 | 20 | 161 | 4.8 | 0.0 | 0.00 | 0.00 | 0.00 | 53 | |
| 20260507085610 | 20 | 165 | 0.0 | 0.0 | 0.00 | 0.00 | 0.00 | 100 | |
| 20260507084604 | 19 | 343 | 1.6 | 0.0 | 0.00 | 0.00 | 0.00 | 8 | |
| 20260507083600 | 19 | 188 | 1.6 | 0.0 | 0.00 | 0.00 | 0.00 | 100 | |
| 20260507082553 | 18 | 9 | 0.0 | 0.0 | 0.00 | 0.00 | 0.00 | 12 | 4915.7 |
| 20260507081550 | 17 | 154 | 0.0 | 0.0 | 0.00 | 0.00 | 0.00 | 25 | 4915.7 |
| 20260507080546 | 18 | 137 | 0.0 | 0.0 | 0.00 | 0.00 | 0.00 | 9 | 4915.7 |
| 20260507075539 | 17 | 205 | 0.0 | 0.0 | 0.00 | 0.00 | 0.00 | 15 | 4915.7 |
| 20260507074533 | 18 | 194 | 0.0 | 0.0 | 0.00 | 0.00 | 0.00 | 58 | 121.6 |
| 20260507073529 | 18 | 168 | 0.0 | 0.0 | 0.00 | 0.00 | 0.00 | 57 | 121.6 |
| 20260507072524 | 19 | 178 | 0.0 | 0.0 | 0.00 | 0.00 | 0.00 | 79 | 4352.0 |
| 20260507071514 | 18 | 170 | 0.0 | 0.0 | 0.00 | 0.00 | 0.00 | 5 | 68.2 |
| 20260507070505 | 18 | 188 | 0.0 | 0.0 | 0.00 | 0.00 | 0.00 | 12 | 17.0 |
| 20260507065451 | 16 | 203 | 0.0 | 0.0 | 0.00 | 0.00 | 0.00 | 2 | 8.1 |
| 20260507064447 | 16 | 174 | 0.0 | 0.0 | 0.00 | 0.00 | 0.00 | 100 | 8.1 |
| 20260507063442 | 15 | 164 | 0.0 | 0.0 | 0.00 | 0.00 | 0.00 | 1 | 3703.4 |
| 20260507062430 | 15 | 348 | 0.0 | 0.0 | 0.00 | 0.00 | 0.00 | 38 | 2461.3 |
| 20260507061422 | 14 | 172 | 0.0 | 0.0 | 0.00 | 0.00 | 0.00 | 1 | |
| 20260507060410 | 13 | 174 | 0.0 | 0.0 | 0.00 | 0.00 | 0.00 | 53 | 5.4 |
| 20260507055358 | 13 | 208 | 0.0 | 0.0 | 0.00 | 0.00 | 0.00 | 12 | 5.4 |
| 20260507054350 | 12 | 223 | 1.6 | 0.0 | 0.00 | 0.00 | 0.00 | 3 | 5.4 |
| 20260507053327 | 12 | 158 | 0.0 | 0.0 | 0.00 | 0.00 | 0.00 | 8 | 5.4 |
| 20260507052308 | 12 | 203 | 0.0 | 0.0 | 0.00 | 0.00 | 0.00 | 5 | 4352.0 |
| 20260507051258 | 12 | 175 | 0.0 | 0.0 | 0.00 | 0.00 | 0.00 | 53 | 200.0 |
| 20260507050259 | 12 | 175 | 0.0 | 0.0 | 0.00 | 0.00 | 0.00 | 12 | 12.6 |
| 20260507045247 | 12 | 168 | 0.0 | 0.0 | 0.00 | 0.00 | 0.00 | 100 | 313.6 |
| 20260507044242 | 12 | 232 | 0.0 | 0.0 | 0.00 | 0.00 | 0.00 | 23 | 313.6 |
| 20260507043237 | 12 | 275 | 0.0 | 0.0 | 0.00 | 0.00 | 0.00 | 1 | 3558.6 |
| 20260507042230 | 12 | 292 | 0.0 | 0.0 | 0.00 | 0.00 | 0.00 | 100 | 3558.6 |
| 20260507041225 | 12 | 203 | 0.0 | 0.0 | 0.00 | 0.00 | 0.00 | 53 | 3558.6 |
| 20260507040221 | 12 | 199 | 0.0 | 0.0 | 0.00 | 0.00 | 0.00 | 12 | 3558.6 |
| 20260507035217 | 11 | 167 | 0.0 | 0.0 | 0.00 | 0.00 | 0.00 | 53 | |
| 20260507034215 | 11 | 177 | 0.0 | 0.0 | 0.00 | 11.05 | 0.00 | 100 | |
| 20260507033212 | 11 | 154 | 0.0 | 0.0 | 0.00 | 0.00 | 0.00 | 11 | |
| 20260507032205 | 12 | 226 | 0.0 | 0.0 | 0.00 | 0.00 | 0.00 | 1 | |
| 20260507031157 | 12 | 220 | 1.6 | 0.0 | 0.00 | 0.00 | 0.00 | 7 | 921.6 |
| 20260507030152 | 12 | 113 | 0.0 | 0.0 | 0.00 | 0.00 | 0.00 | 3 | 921.6 |
| 20260507025146 | 12 | 15 | 0.0 | 0.0 | 0.00 | 0.00 | 0.00 | 28 | 6329.0 |
| 20260507024141 | 12 | 165 | 4.8 | 0.0 | 0.00 | 0.00 | 0.00 | 100 | 6329.0 |
| 20260507023136 | 12 | 258 | 1.6 | 0.0 | 0.00 | 0.00 | 0.00 | 10 | 6329.0 |
| 20260507022129 | 12 | 192 | 4.8 | 0.0 | 0.00 | 0.00 | 0.00 | 7 | |
| 20260507021124 | 12 | 8 | 0.0 | 0.0 | 0.00 | 0.00 | 0.00 | 12 | 54.8 |
| 20260507020120 | 12 | 119 | 0.0 | 0.0 | 0.00 | 0.00 | 0.00 | 3 | 137.6 |
| 20260507015111 | 12 | 160 | 1.6 | 0.0 | 0.00 | 0.00 | 0.00 | 7 | 137.6 |
| 20260507014109 | 12 | 191 | 4.8 | 0.0 | 0.00 | 0.00 | 0.00 | 53 | 137.6 |
| 20260507013106 | 12 | 227 | 8.0 | 0.0 | 0.00 | 0.00 | 0.00 | 53 | 137.6 |
| 20260507012057 | 12 | 146 | 6.4 | 0.0 | 0.00 | 0.00 | 0.00 | 100 | 1049.8 |
| 20260507011053 | 12 | 147 | 3.2 | 0.0 | 0.00 | 0.00 | 0.00 | 11 | 1049.8 |
| 20260507010049 | 12 | 175 | 6.4 | 0.0 | 0.00 | 0.00 | 0.00 | 30 | 1049.8 |
| 20260507005042 | 13 | 229 | 9.7 | 0.0 | 0.00 | 0.00 | 0.00 | 16 | 1049.8 |
| 20260507004035 | 13 | 268 | 0.0 | 0.0 | 0.00 | 0.00 | 0.00 | 52 | 1049.8 |
| 20260507003023 | 13 | 144 | 4.8 | 0.0 | 0.00 | 0.00 | 0.00 | 11 | 1049.8 |
| 20260507002017 | 12 | 177 | 1.6 | 0.0 | 0.00 | 0.00 | 0.00 | 13 | 1689.8 |
| 20260507001012 | 13 | 178 | 11.3 | 0.0 | 0.00 | 0.00 | 0.00 | 6 | 1689.8 |
| 20260507000009 | 13 | 160 | 6.4 | 0.0 | 0.00 | 0.00 | 0.00 | 88 | 1689.8 |
| 20260506235001 | 13 | 174 | 4.8 | 0.0 | 0.00 | 0.00 | 0.00 | 100 | 208.0 |
| 20260506233957 | 13 | 191 | 9.7 | 0.0 | 0.00 | 0.00 | 0.00 | 1 | 208.0 |
| 20260506232951 | 13 | 225 | 1.6 | 0.0 | 0.00 | 0.00 | 0.00 | 2 | 902.4 |
| 20260506231942 | 13 | 153 | 8.0 | 0.0 | 0.00 | 0.00 | 0.00 | 6 | 4096.3 |
| 20260506230938 | 13 | 40 | 0.0 | 0.0 | 0.00 | 0.00 | 0.00 | 53 | 4096.3 |
| 20260506225928 | 13 | 254 | 0.0 | 0.0 | 0.00 | 0.00 | 0.00 | 2 | 4096.3 |
| 20260506224920 | 13 | 8 | 4.8 | 0.0 | 0.00 | 0.00 | 0.00 | 6 | 4096.3 |
| 20260506223917 | 13 | 144 | 4.8 | 0.0 | 0.00 | 0.00 | 0.00 | 53 | 4096.0 |
| 20260506222910 | 13 | 127 | 0.0 | 0.0 | 0.00 | 0.00 | 0.00 | 100 | 486.4 |
| 20260506221906 | 14 | 285 | 0.0 | 0.0 | 0.00 | 0.00 | 0.00 | 1 | 486.4 |
| 20260506220901 | 14 | 151 | 9.7 | 0.0 | 0.00 | 0.00 | 0.00 | 100 | 486.4 |
| 20260506215854 | 14 | 68 | 0.0 | 0.0 | 0.00 | 0.00 | 0.00 | 100 | 486.4 |
| 20260506214849 | 14 | 279 | 4.8 | 0.0 | 0.00 | 0.00 | 0.00 | 61 | 486.4 |
| 20260506213845 | 14 | 4 | 0.0 | 0.0 | 0.00 | 0.00 | 0.00 | 40 | 486.4 |
| 20260506212839 | 14 | 125 | 1.6 | 0.0 | 0.00 | 0.00 | 0.00 | 3 | 4096.2 |
| 20260506211823 | 14 | 229 | 1.6 | 0.0 | 0.00 | 0.00 | 0.00 | 12 | 4096.2 |
| 20260506205807 | 14 | 185 | 3.2 | 0.0 | 0.00 | 0.00 | 0.00 | 82 | 4352.0 |
| 20260506204800 | 15 | 174 | 0.0 | 0.0 | 0.00 | 0.00 | 0.00 | 100 | 4352.0 |
| 20260506203756 | 15 | 158 | 1.6 | 0.0 | 0.00 | 0.00 | 0.00 | 3 | 4352.0 |
| 20260506202750 | 15 | 316 | 0.0 | 0.0 | 0.00 | 0.00 | 0.00 | 100 | 102.4 |
| 20260506201740 | 15 | 337 | 0.0 | 0.0 | 0.00 | 0.00 | 0.00 | 28 | 102.4 |
| 20260506200735 | 16 | 133 | 4.8 | 0.0 | 0.00 | 0.00 | 0.00 | 79 | 2483.2 |
| 20260506195729 | 16 | 115 | 1.6 | 0.0 | 0.00 | 0.00 | 0.00 | 100 | 113.0 |
| 20260506194721 | 16 | 222 | 3.2 | 0.0 | 0.00 | 0.00 | 0.00 | 28 | 2892.8 |
| 20260506192709 | 16 | 229 | 4.8 | 0.0 | 0.00 | 0.00 | 0.00 | 60 | 2892.8 |
| 20260506191704 | 16 | 104 | 9.7 | 0.0 | 0.00 | 0.00 | 0.00 | 100 | 8.1 |
| 20260506190657 | 16 | 171 | 4.8 | 0.0 | 0.00 | 0.00 | 0.00 | 33 | 8.1 |
| 20260506185649 | 16 | 167 | 6.4 | 0.0 | 0.00 | 0.00 | 0.00 | 28 | 3687.7 |
| 20260506184644 | 16 | 129 | 0.0 | 0.0 | 0.00 | 0.00 | 0.00 | 100 | 3456.2 |
| 20260506183639 | 17 | 189 | 4.8 | 0.0 | 0.00 | 0.00 | 0.00 | 52 | 3456.2 |
| 20260506182631 | 17 | 225 | 3.2 | 0.0 | 0.00 | 0.00 | 0.00 | 59 | 1126.4 |